Location: 5810 Zion Rd, Cleves, OH 45002, USA
(39.1922°N, 84.7113°W)
Time: 20:55:10
(UTC-05:00)

A-11 Canister half - All Passes

Search period start: 15 December 2019 00:00
Search period end: 25 December 2019 00:00
Orbit: 1515 x 1684 km, 47.2° (Epoch: 14 December)

Date Brightness Start Highest point End Pass type
(mag) Time Alt. Az. Time Alt. Az. Time Alt. Az.
15 Dec - 09:04:05 10° S 09:11:24 26° SE 09:18:53 10° ENE daylight
15 Dec - 11:05:49 10° SW 11:15:16 81° SE 11:25:07 10° ENE daylight
15 Dec - 13:11:23 10° W 13:20:51 57° N 13:30:41 10° ENE daylight
15 Dec - 15:17:31 10° WNW 15:27:15 60° NNE 15:37:15 10° E daylight
15 Dec - 17:22:48 10° WNW 17:32:45 74° SW 17:42:53 10° SE daylight
15 Dec - 19:29:14 10° WNW 19:36:40 24° SW 19:44:10 10° S visible
16 Dec - 08:41:34 10° S 08:48:35 24° SE 08:55:45 10° ENE daylight
16 Dec - 10:42:57 10° SW 10:52:21 77° SE 11:02:08 10° ENE daylight
16 Dec - 12:48:24 10° W 12:57:51 58° NNW 13:07:40 10° ENE daylight
16 Dec - 14:54:33 10° WNW 15:04:14 59° NNE 15:14:12 10° E daylight
16 Dec - 16:59:51 10° WNW 17:09:49 78° SW 17:19:58 10° SE daylight
16 Dec - 19:06:05 10° WNW 19:13:49 26° SW 19:21:37 10° S visible
17 Dec - 08:19:06 10° S 08:25:46 22° SE 08:32:34 10° E daylight
17 Dec - 10:20:06 10° SW 10:29:26 74° SE 10:39:10 10° ENE daylight
17 Dec - 12:25:24 10° W 12:34:50 59° NNW 12:44:39 10° ENE daylight
17 Dec - 14:31:35 10° WNW 14:41:13 58° NNE 14:51:09 10° E daylight
17 Dec - 16:36:54 10° WNW 16:46:53 81° SSW 16:57:03 10° SE daylight
17 Dec - 18:42:58 10° WNW 18:50:57 28° SW 18:59:02 10° S visible
18 Dec - 07:56:40 10° SSE 08:02:57 20° SE 08:09:21 10° E daylight
18 Dec - 09:57:15 10° SW 10:06:33 70° SE 10:16:11 10° ENE daylight
18 Dec - 12:02:25 10° W 12:11:51 61° NNW 12:21:38 10° ENE daylight
18 Dec - 14:08:38 10° WNW 14:18:12 57° N 14:28:05 10° E daylight
18 Dec - 16:13:58 10° WNW 16:23:55 84° SSW 16:34:06 10° SE daylight
18 Dec - 18:19:52 10° WNW 18:28:05 30° SW 18:36:25 10° S visible
19 Dec - 07:34:17 10° SSE 07:40:09 19° SE 07:46:05 10° E daylight
19 Dec - 09:34:26 10° SW 09:43:39 67° SE 09:53:13 10° ENE daylight
19 Dec - 11:39:27 10° W 11:48:51 62° NNW 11:58:38 10° ENE daylight
19 Dec - 13:45:40 10° WNW 13:55:11 56° N 14:05:02 10° E daylight
19 Dec - 15:51:03 10° WNW 16:00:59 88° SSW 16:11:10 10° SE daylight
19 Dec - 17:56:49 10° WNW 18:05:14 32° SW 18:13:47 10° S visible
20 Dec - 07:11:59 10° SSE 07:17:21 17° ESE 07:22:47 10° E visible
20 Dec - 09:11:37 10° SW 09:20:46 63° SE 09:30:14 10° ENE daylight
20 Dec - 11:16:28 10° W 11:25:52 64° NNW 11:35:39 10° ENE daylight
20 Dec - 13:22:42 10° WNW 13:32:10 55° N 13:41:58 10° E daylight
20 Dec - 15:28:07 10° WNW 15:38:01 89° NNE 15:48:12 10° ESE daylight
20 Dec - 17:33:45 10° WNW 17:42:22 34° SW 17:51:06 10° S visible
21 Dec - 06:49:46 10° SSE 06:54:33 15° ESE 06:59:23 10° E visible
21 Dec - 08:48:48 10° SW 08:57:53 60° SE 09:07:16 10° ENE daylight
21 Dec - 10:53:31 10° W 11:02:54 65° NNW 11:12:39 10° ENE daylight
21 Dec - 12:59:44 10° WNW 13:09:09 55° N 13:18:55 10° E daylight
21 Dec - 15:05:11 10° WNW 15:15:04 86° NNE 15:25:13 10° ESE daylight
21 Dec - 17:10:43 10° WNW 17:19:29 37° SW 17:28:25 10° SSE daylight
22 Dec - 06:27:41 10° SSE 06:31:45 14° ESE 06:35:53 10° E visible
22 Dec - 08:26:02 10° SSW 08:35:01 56° SE 08:44:17 10° ENE daylight
22 Dec - 10:30:33 10° WSW 10:39:55 67° NNW 10:49:40 10° ENE daylight
22 Dec - 12:36:45 10° WNW 12:46:09 54° N 12:55:52 10° E daylight
22 Dec - 14:42:15 10° WNW 14:52:06 83° NNE 15:02:15 10° ESE daylight
22 Dec - 16:47:42 10° WNW 16:56:36 39° SW 17:05:42 10° SSE daylight
23 Dec - 06:05:48 10° SE 06:08:58 12° ESE 06:12:09 10° E visible
23 Dec - 08:03:15 10° SSW 08:12:08 53° SE 08:21:18 10° ENE daylight
23 Dec - 10:07:35 10° WSW 10:16:57 69° NNW 10:26:41 10° ENE daylight
23 Dec - 12:13:47 10° WNW 12:23:08 54° N 12:32:49 10° E daylight
23 Dec - 14:19:19 10° WNW 14:29:08 80° NNE 14:39:15 10° ESE daylight
23 Dec - 16:24:42 10° WNW 16:33:43 42° SW 16:42:57 10° SSE daylight
24 Dec - 05:44:26 10° SE 05:46:11 11° ESE 05:47:56 10° ESE visible
24 Dec - 07:40:30 10° SSW 07:49:17 50° SE 07:58:19 10° ENE daylight
24 Dec - 09:44:38 10° WSW 09:53:59 71° NNW 10:03:42 10° ENE daylight
24 Dec - 11:50:49 10° WNW 12:00:07 53° N 12:09:45 10° ENE daylight
24 Dec - 13:56:24 10° WNW 14:06:10 78° NNE 14:16:15 10° ESE daylight
24 Dec - 16:01:43 10° WNW 16:10:50 44° SW 16:20:11 10° SSE daylight
